Home > Time Zones > World Clock > Weather > Norway > Alta > Past weeks

Flag for Norway Weather past 2 weeks in Alta, Norway

Now
36 °F

Chilly.


Feels Like: 36 °F
Forecast: 28 / 46 °F
Wind: 2 mph from Southeast

Location: Alta Lufthavn

Current Time: Sep 19, 2014 at 9:53:50 AM

Latest Report: Sep 19, 2014 at 9:00 AM


Visibility: N/A

Pressure: 30.10 "Hg

Humidity: 79%

Dew point: 30 °F

Location of AltaLocation

Historic Weather in Alta — Graph

°F

Alta temperature yesterday

Maximum temperature yesterday: 47 °F (at 4:00 PM)
Minimum temperature yesterday: 39 °F (at 11:00 PM)
Average temperature yesterday: 44 °F

Past Weeks' High & Low Weather Summary

 TemperatureHumidityPressure
High62 °F (Sep 11, 11:00 AM)95% (Sep 17, 6:00 AM)30.40 "Hg (Sep 17, 6:00 AM)
Low30 °F (Sep 19, 5:00 AM)38% (Sep 15, 11:00 AM)29.62 "Hg (Sep 11, 10:00 AM)
Average49 °F71%30.04 "Hg
* Reported Sep 4 8:00 AM — Sep 19 8:00 AM, Alta, Weather by CustomWeather, © 2014

Note: Actual official high and low records may vary slightly from our data, if they occured in-between our weather recording intervals... More about our weather records

Advertising

Alta weather history for previous 24 hours

 ConditionsComfort  
Time TempWeatherWind HumidityBarometerVisibility
8:00 AM
Sep 19
31 °FChilly.1 mph90%30.10 "HgN/A
7:00 AM32 °FChilly.1 mph90%30.10 "HgN/A
6:00 AM31 °FChilly.1 mph92%30.10 "HgN/A
5:00 AM30 °FChilly.1 mph90%30.11 "HgN/A
4:00 AM32 °FChilly.2 mph88%30.11 "HgN/A
3:00 AM32 °FChilly.3 mph88%30.12 "HgN/A
2:00 AM33 °FChilly.1 mph86%30.14 "HgN/A
1:00 AM33 °FChilly.2 mph85%30.15 "HgN/A
11:00 PM
Sep 18
39 °FChilly.3 mph68%30.16 "HgN/A
10:00 PM40 °FQuite cool.3 mph64%30.17 "HgN/A
9:00 PM41 °FQuite cool.5 mph64%30.18 "HgN/A
8:00 PM43 °FQuite cool.3 mph54%30.19 "HgN/A
5:00 PM47 °FCool.6 mph45%30.20 "HgN/A
4:00 PM47 °FCool.5 mph52%30.20 "HgN/A
3:00 PM47 °FCool.6 mph53%30.20 "HgN/A
2:00 PM47 °FCool.5 mph50%30.21 "HgN/A
1:00 PM46 °FCool.7 mph56%30.22 "HgN/A
12:00 PM47 °FCool.5 mph50%30.22 "HgN/A
11:00 AM45 °FCool.6 mph56%30.23 "HgN/A
10:00 AM45 °FCool.5 mph58%30.23 "HgN/A
9:00 AM45 °FQuite cool.3 mph58%30.22 "HgN/A
Weather by CustomWeather, © 2014

See weather overviewHow to use our weather pages